DW7628 Weather Reports


Display with metric or nautical units.
time (UTC)temp
F
wind
direction
speed
MPH
gust
MPH
rain 1hr
in
rain 24hr
in
rain mn
in
humidity
%
barometer
mb
20260507210306 59 41 0.0 0.0 0.00 0.00 0.00 83 1007.8
20260507205806 59 213 0.0 0.0 0.00 0.00 0.00 83 1008.0
20260507205307 59 335 0.0 0.0 0.00 0.00 0.00 83 1008.1
20260507204807 59 226 0.0 0.0 0.00 0.00 0.00 83 1008.3
20260507204305 59 143 0.0 0.0 0.00 0.00 0.00 82 1008.2
20260507203805 59 205 0.0 0.0 0.00 0.00 0.00 82 1008.2
20260507202806 60 232 0.0 0.0 0.00 0.00 0.00 81 1007.9
20260507201806 60 18 0.0 0.0 0.00 0.00 0.00 81 1007.8
20260507201305 60 138 0.0 0.0 0.00 0.00 0.00 81 1008.0
20260507200806 60 139 0.0 0.0 0.00 0.00 0.00 81 1008.2
20260507200306 60 164 0.0 0.0 0.00 0.00 0.00 81 1008.4
20260507195807 60 188 0.0 0.0 0.00 0.00 0.00 81 1008.4
20260507194806 60 343 0.0 0.0 0.00 0.00 0.00 81 1008.3
20260507194306 60 335 0.0 0.0 0.00 0.00 0.00 82 1008.0
20260507193806 60 129 0.0 0.0 0.00 0.00 0.00 82 1007.9
20260507192806 60 15 0.0 0.0 0.00 0.00 0.00 81 1007.8
20260507192306 60 141 0.0 0.0 0.00 0.00 0.00 82 1007.6
20260507185806 60 269 0.0 0.0 0.00 0.00 0.00 82 1007.4
20260507185306 60 237 0.0 0.0 0.00 0.00 0.00 82 1007.3
20260507184805 60 230 0.0 0.0 0.00 0.00 0.00 82 1007.3
20260507184307 60 49 0.0 0.0 0.00 0.00 0.00 82 1007.3
20260507183805 60 34 0.0 0.0 0.00 0.00 0.00 81 1007.3
20260507183306 60 28 0.0 0.0 0.00 0.00 0.00 81 1007.3
20260507182806 60 36 0.0 0.0 0.00 0.00 0.00 82 1007.2
20260507182307 60 25 0.0 0.0 0.00 0.00 0.00 82 1007.3
20260507181805 60 145 0.0 0.0 0.00 0.00 0.00 82 1007.4
20260507181308 60 145 0.0 0.0 0.00 0.00 0.00 82 1007.4
20260507180805 60 109 0.0 0.0 0.00 0.00 0.00 81 1007.4
20260507175805 60 135 0.0 0.0 0.00 0.00 0.00 81 1007.3
20260507175307 60 155 0.0 0.0 0.00 0.00 0.00 81 1007.3
20260507174305 60 113 0.0 0.0 0.00 0.00 0.00 80 1007.0
20260507173807 60 76 0.0 0.0 0.00 0.00 0.00 80 1007.1
20260507173306 60 129 0.0 0.0 0.00 0.00 0.00 80 1007.0
20260507172308 61 82 0.0 0.0 0.00 0.00 0.00 79 1007.0
20260507171805 61 42 0.0 0.0 0.00 0.00 0.00 79 1007.0
20260507170805 61 67 0.0 0.0 0.00 0.00 0.00 78 1007.2
20260507170306 61 58 0.0 0.0 0.00 0.00 0.00 78 1007.2
20260507165806 61 333 0.0 0.0 0.00 0.00 0.00 78 1007.3
20260507165306 62 71 0.0 0.0 0.00 0.00 0.00 77 1007.0
20260507164805 62 24 0.0 0.0 0.00 0.00 0.00 77 1006.9
20260507164305 62 99 0.0 0.0 0.00 0.00 0.00 76 1007.1
20260507163306 62 41 0.0 0.0 0.00 0.00 0.00 76 1006.9
20260507162805 62 108 0.0 0.0 0.00 0.00 0.00 76 1006.9
20260507162307 63 312 0.0 0.0 0.00 0.00 0.00 75 1007.1
20260507161805 63 126 0.0 0.0 0.00 0.00 0.00 74 1007.1
20260507161306 63 58 0.0 0.0 0.00 0.00 0.00 73 1007.1
20260507160806 64 8 0.0 0.0 0.00 0.00 0.00 73 1007.0
20260507160306 64 48 0.0 0.0 0.00 0.00 0.00 72 1007.1
20260507155805 64 94 0.0 0.0 0.00 0.00 0.00 72 1007.2
20260507155307 64 223 0.0 0.0 0.00 0.00 0.00 72 1007.4
20260507154805 64 125 0.0 0.0 0.00 0.00 0.00 72 1007.5
20260507154306 64 42 0.0 0.0 0.00 0.00 0.00 72 1007.5
20260507153805 64 78 0.0 0.0 0.00 0.00 0.00 72 1007.3
20260507153305 64 91 0.0 0.0 0.00 0.00 0.00 72 1007.2
20260507152805 64 26 0.0 0.0 0.00 0.00 0.00 72 1007.1
20260507152306 64 121 0.0 0.0 0.00 0.00 0.00 71 1007.1
20260507151806 65 86 0.0 0.0 0.00 0.00 0.00 70 1007.2
20260507151305 65 54 0.0 0.0 0.00 0.00 0.00 70 1007.2
20260507150805 65 36 0.0 0.0 0.00 0.00 0.00 70 1007.1
20260507150306 65 38 0.0 0.0 0.00 0.00 0.00 70 1007.0
20260507145805 65 24 0.0 0.0 0.00 0.00 0.00 70 1006.9
20260507145307 65 114 0.0 0.0 0.00 0.00 0.00 70 1006.7
20260507144805 65 79 0.0 0.0 0.00 0.00 0.00 70 1006.7
20260507144305 65 66 0.0 0.0 0.00 0.00 0.00 70 1006.4
20260507143805 65 70 0.0 0.0 0.00 0.00 0.00 71 1006.3
20260507143305 64 251 0.0 0.0 0.00 0.00 0.00 71 1006.3
20260507142805 65 5 0.0 0.0 0.00 0.00 0.00 69 1006.6
20260507142307 65 85 0.0 0.0 0.00 0.00 0.00 71 1006.6
20260507141805 64 83 0.0 0.0 0.00 0.00 0.00 72 1006.6
20260507141305 64 100 0.0 0.0 0.00 0.00 0.00 72 1006.7
20260507140805 64 125 0.0 0.0 0.00 0.00 0.00 71 1006.8
20260507140305 64 144 0.0 0.0 0.00 0.00 0.00 72 1006.8
20260507135306 64 75 0.0 0.0 0.00 0.00 0.00 71 1006.8
20260507134805 64 75 0.0 0.0 0.00 0.00 0.00 70 1006.7
20260507134305 64 81 0.0 0.0 0.00 0.00 0.00 70 1006.9
20260507133805 64 21 0.0 0.0 0.00 0.00 0.00 70 1006.8
20260507133306 64 52 0.0 0.0 0.00 0.00 0.00 70 1006.6
20260507132307 64 22 0.0 0.0 0.00 0.00 0.00 70 1006.9
20260507131805 64 83 0.0 0.0 0.00 0.00 0.00 69 1006.9
20260507131305 64 25 0.0 0.0 0.00 0.00 0.00 69 1007.0
20260507130306 64 10 0.0 0.0 0.00 0.00 0.00 69 1006.9
20260507125805 64 117 0.0 0.0 0.00 0.00 0.00 69 1006.9
20260507125307 64 44 0.0 0.0 0.00 0.00 0.00 68 1007.1
20260507124805 64 56 0.0 0.0 0.00 0.00 0.00 69 1007.2
20260507124304 64 87 0.0 0.0 0.00 0.00 0.00 68 1007.2
20260507123805 64 13 0.0 0.0 0.00 0.00 0.00 67 1007.5
20260507123304 65 15 0.0 0.0 0.00 0.00 0.00 67 1007.5
20260507122806 65 16 0.0 0.0 0.00 0.00 0.00 67 1007.5
20260507122307 65 47 0.0 0.0 0.00 0.00 0.00 67 1007.5
20260507121805 64 44 0.0 0.0 0.00 0.00 0.00 68 1007.6
20260507121305 64 40 0.0 0.0 0.00 0.00 0.00 67 1007.5
20260507120805 64 139 0.0 0.0 0.00 0.00 0.00 66 1007.1
20260507120305 64 82 0.0 0.0 0.00 0.00 0.00 67 1007.0
20260507115805 64 86 0.0 0.0 0.00 0.00 0.00 67 1007.0
20260507115307 64 27 0.0 0.0 0.00 0.00 0.00 66 1007.0
20260507114805 65 63 0.0 0.0 0.00 0.00 0.00 66 1007.1
20260507114305 64 46 0.0 0.0 0.00 0.00 0.00 66 1006.9
20260507113805 64 36 0.0 0.0 0.00 0.00 0.00 66 1006.8
20260507113306 65 109 0.0 0.0 0.00 0.00 0.00 66 1007.0
20260507112805 64 76 0.0 0.0 0.00 0.00 0.00 67 1007.0
20260507111805 64 67 0.0 0.0 0.00 0.00 0.00 67 1007.2
20260507111305 64 16 0.0 0.0 0.00 0.00 0.00 67 1007.3
20260507110805 64 108 0.0 0.0 0.00 0.00 0.00 68 1007.2
20260507110305 63 91 0.0 0.0 0.00 0.00 0.00 68 1007.1
20260507105805 63 90 0.0 0.0 0.00 0.00 0.00 68 1007.3
20260507105307 63 49 0.0 0.0 0.00 0.00 0.00 69 1007.4
20260507104804 63 114 0.0 0.0 0.00 0.00 0.00 69 1007.3
20260507104305 63 98 0.0 0.0 0.00 0.00 0.00 68 1007.6
20260507103805 63 86 0.0 0.0 0.00 0.00 0.00 68 1007.6
20260507103305 64 81 0.0 0.0 0.00 0.00 0.00 67 1007.5
20260507102805 64 74 0.0 0.0 0.00 0.00 0.00 66 1007.4
20260507102307 64 33 0.0 0.0 0.00 0.00 0.00 66 1007.3
20260507101805 65 4 0.0 0.0 0.00 0.00 0.00 64 1007.2
20260507101305 65 119 0.0 0.0 0.00 0.00 0.00 64 1007.4
20260507100805 65 24 0.0 0.0 0.00 0.00 0.00 63 1007.6
20260507100305 65 15 0.0 0.0 0.00 0.00 0.00 63 1007.5
20260507095306 65 35 0.0 0.0 0.00 0.00 0.00 62 1007.6
20260507094804 65 62 0.0 0.0 0.00 0.00 0.00 62 1007.5
20260507094306 64 67 0.0 0.0 0.00 0.00 0.00 63 1007.6
20260507093804 65 93 0.0 0.0 0.00 0.00 0.00 62 1007.6
20260507093304 64 64 0.0 0.0 0.00 0.00 0.00 63 1007.6
20260507092806 64 52 0.0 0.0 0.00 0.00 0.00 63 1007.7
20260507092307 64 119 0.0 0.0 0.00 0.00 0.00 63 1007.9
20260507091805 64 44 0.0 0.0 0.00 0.00 0.00 62 1008.2
20260507091304 64 95 0.0 0.0 0.00 0.00 0.00 62 1008.1
20260507090805 64 120 0.0 0.0 0.00 0.00 0.00 61 1008.0
20260507090305 64 81 0.0 0.0 0.00 0.00 0.00 62 1007.9
20260507085804 64 112 0.0 0.0 0.00 0.00 0.00 61 1007.8
20260507085306 64 110 0.0 0.0 0.00 0.00 0.00 61 1007.7
20260507084305 64 99 0.0 0.0 0.00 0.00 0.00 63 1007.8
20260507083305 63 142 0.0 0.0 0.00 0.00 0.00 63 1008.0
20260507082805 63 73 0.0 0.0 0.00 0.00 0.00 64 1008.0
20260507081805 63 40 0.0 0.0 0.00 0.00 0.00 64 1007.9
20260507081304 63 84 0.0 0.0 0.00 0.00 0.00 64 1008.2
20260507080805 63 148 0.0 0.0 0.00 0.00 0.00 64 1008.0
20260507080305 63 48 0.0 0.0 0.00 0.00 0.00 65 1008.1
20260507075804 62 31 0.0 0.0 0.00 0.00 0.00 65 1008.0
20260507075307 62 316 0.0 0.0 0.00 0.00 0.00 67 1008.0
20260507074804 62 21 0.0 0.0 0.00 0.00 0.00 66 1007.8
20260507074305 62 101 0.0 0.0 0.00 0.00 0.00 66 1007.8
20260507073806 62 97 0.0 0.0 0.00 0.00 0.00 67 1007.8
20260507073305 62 9 0.0 0.0 0.00 0.00 0.00 68 1007.8
20260507072804 62 82 0.0 0.0 0.00 0.00 0.00 69 1007.8
20260507072306 62 10 0.0 0.0 0.00 0.00 0.00 70 1007.8
20260507071805 61 130 0.0 0.0 0.00 0.00 0.00 71 1008.0
20260507071304 61 42 0.0 0.0 0.00 0.00 0.00 70 1008.0
20260507070805 61 103 0.0 0.0 0.00 0.00 0.00 70 1008.0
20260507070304 61 90 0.0 0.0 0.00 0.00 0.00 72 1007.9
20260507065804 60 106 0.0 0.0 0.00 0.00 0.00 72 1007.7
20260507065306 60 52 0.0 0.0 0.00 0.00 0.00 73 1007.7
20260507064305 60 143 0.0 0.0 0.00 0.00 0.00 73 1007.8
20260507063804 60 90 0.0 0.0 0.00 0.00 0.00 73 1007.7
20260507063304 60 192 0.0 0.0 0.00 0.00 0.00 73 1007.8
20260507062306 60 60 0.0 0.0 0.00 0.00 0.00 71 1007.7
20260507061804 60 47 0.0 0.0 0.00 0.00 0.00 70 1007.7
20260507061305 60 27 0.0 0.0 0.00 0.00 0.00 70 1007.5
20260507060804 60 56 0.0 0.0 0.00 0.00 0.00 70 1007.5
20260507060305 59 101 0.0 0.0 0.00 0.00 0.00 71 1007.7
20260507055805 59 88 0.0 0.0 0.00 0.00 0.00 71 1007.3
20260507055306 59 43 0.0 0.0 0.00 0.00 0.00 72 1007.2
20260507054304 59 13 0.0 0.0 0.00 0.00 0.00 72 1007.2
20260507053806 59 77 0.0 0.0 0.00 0.00 0.00 71 1007.3
20260507053305 59 87 0.0 0.0 0.00 0.00 0.00 70 1007.4
20260507052804 59 187 0.0 0.0 0.00 0.00 0.00 69 1007.4
20260507052306 58 315 0.0 0.0 0.00 0.00 0.00 69 1007.3
20260507051304 58 120 0.0 0.0 0.00 0.00 0.00 69 1007.3
20260507050804 59 100 0.0 0.0 0.00 0.00 0.00 68 1007.3
20260507045804 59 230 0.0 0.0 0.00 0.00 0.00 65 1007.3
20260507044804 59 43 0.0 0.0 0.00 0.00 0.00 63 1007.5
20260507044305 59 62 0.0 0.0 0.00 0.00 0.00 63 1007.4
20260507043804 59 69 0.0 0.0 0.00 0.00 0.00 62 1007.5
20260507043304 59 63 0.0 0.0 0.00 0.00 0.00 60 1007.5
20260507042804 59 61 0.0 0.0 0.00 0.00 0.00 60 1007.5
20260507042306 59 329 0.0 0.0 0.00 0.00 0.00 59 1007.6
20260507041804 59 65 0.0 0.0 0.00 0.00 0.00 59 1007.5
20260507041304 59 145 0.0 0.0 0.00 0.00 0.00 58 1007.5
20260507040804 59 103 0.0 0.0 0.00 0.00 0.00 59 1007.5
20260507035804 59 80 0.0 0.0 0.00 0.00 0.00 60 1007.6
20260507035306 59 81 0.0 0.0 0.00 0.00 0.00 60 1007.6
20260507034804 59 56 0.0 0.0 0.00 0.00 0.00 60 1007.6
20260507034306 59 48 0.0 0.0 0.00 0.00 0.00 62 1007.7
20260507033804 59 32 0.0 0.0 0.00 0.00 0.00 62 1007.8
20260507033304 58 60 0.0 0.0 0.00 0.00 0.00 62 1007.9
20260507032804 58 22 0.0 0.0 0.00 0.00 0.00 63 1008.2
20260507032306 58 94 0.0 0.0 0.00 0.00 0.00 62 1008.3
20260507031804 58 86 0.0 0.0 0.00 0.00 0.00 63 1008.4
20260507031304 58 290 0.0 0.0 0.00 0.00 0.00 64 1008.5
20260507030804 58 111 0.0 0.0 0.00 0.00 0.00 65 1008.5
20260507030304 58 46 0.0 0.0 0.00 0.00 0.00 66 1008.6
20260507025804 58 54 0.0 0.0 0.00 0.00 0.00 66 1008.7
20260507025306 58 64 0.0 0.0 0.00 0.00 0.00 65 1008.8
20260507024804 58 71 0.0 0.0 0.00 0.00 0.00 67 1009.0
20260507024304 58 56 0.0 0.0 0.00 0.00 0.00 68 1009.0
20260507023804 57 42 0.0 0.0 0.00 0.00 0.00 69 1009.1
20260507023304 57 65 0.0 0.0 0.00 0.00 0.00 72 1009.1
20260507022805 57 19 0.0 0.0 0.00 0.00 0.00 73 1009.1
20260507021304 57 32 0.0 0.0 0.00 0.00 0.00 76 1009.2
20260507020804 57 344 0.0 0.0 0.00 0.00 0.00 76 1009.1
20260507020304 57 75 0.0 0.0 0.00 0.00 0.00 75 1009.2
20260507015306 57 40 0.0 0.0 0.00 0.00 0.00 75 1008.9
20260507014804 57 110 0.0 0.0 0.00 0.00 0.00 75 1008.9
20260507014304 57 77 0.0 0.0 0.00 0.00 0.00 74 1008.9
20260507013804 57 40 0.0 0.0 0.00 0.00 0.00 72 1009.1
20260507013303 58 105 0.0 0.0 0.00 0.00 0.00 71 1009.1
20260507012306 58 106 0.0 0.0 0.00 0.00 0.00 70 1009.1
20260507011804 57 85 0.0 0.0 0.00 0.00 0.00 71 1009.1
20260507011304 57 182 0.0 0.0 0.00 0.00 0.00 72 1009.2
20260507010804 57 7 0.0 0.0 0.00 0.00 0.00 75 1009.1
20260507010304 57 351 0.0 0.0 0.00 0.00 0.00 75 1009.2
20260507005804 57 11 0.0 0.0 0.00 0.00 0.00 74 1009.1
20260507005306 57 63 0.0 0.0 0.00 0.00 0.00 75 1009.2
20260507004804 57 9 0.0 0.0 0.00 0.00 0.00 75 1009.2
20260507004304 57 84 0.0 0.0 0.00 0.00 0.00 77 1009.2
20260507003803 57 32 0.0 0.0 0.00 0.00 0.00 77 1009.3
20260507003304 57 105 0.0 0.0 0.00 0.00 0.00 77 1009.4
20260507002306 58 357 0.0 0.0 0.00 0.00 0.00 75 1009.6
20260507001807 58 27 0.0 0.0 0.00 0.00 0.00 73 1009.6
20260507001307 58 81 0.0 0.0 0.00 0.00 0.00 73 1009.7
20260507000806 58 106 0.0 0.0 0.00 0.00 0.00 73 1009.7
20260507000307 58 92 0.0 0.0 0.00 0.00 0.00 74 1009.7
20260506235806 57 45 0.0 0.0 0.00 0.00 0.00 75 1009.8
20260506235307 57 253 0.0 0.0 0.00 0.00 0.00 77 1009.7
20260506234806 57 96 0.0 0.0 0.00 0.00 0.00 78 1009.9
20260506233807 58 209 0.0 0.0 0.00 0.00 0.00 77 1010.0
20260506233306 57 49 0.0 0.0 0.00 0.00 0.00 77 1010.1
20260506232806 57 25 0.0 0.0 0.00 0.00 0.00 78 1010.3
20260506232306 57 12 0.0 0.0 0.00 0.00 0.00 79 1010.4
20260506231806 57 139 0.0 0.0 0.00 0.00 0.00 79 1010.4
20260506231306 57 137 0.0 0.0 0.00 0.00 0.00 79 1010.3
20260506230806 57 80 0.0 0.0 0.00 0.00 0.00 78 1010.6
20260506230306 58 18 0.0 0.0 0.00 0.00 0.00 77 1010.7
20260506225806 58 30 0.0 0.0 0.00 0.00 0.00 77 1010.8
20260506225306 58 11 0.0 0.0 0.00 0.00 0.00 77 1010.9
20260506224306 58 356 0.0 0.0 0.00 0.00 0.00 77 1010.9
20260506223806 58 55 0.0 0.0 0.00 0.00 0.00 77 1011.0
20260506223306 58 131 0.0 0.0 0.00 0.00 0.00 77 1011.0
20260506222806 58 223 0.0 0.0 0.00 0.00 0.00 76 1011.0
20260506222306 58 29 0.0 0.0 0.00 0.00 0.00 76 1010.7
20260506221806 58 328 0.0 0.0 0.00 0.00 0.00 76 1010.6
20260506221307 58 105 0.0 0.0 0.00 0.00 0.00 75 1010.4
20260506220306 58 31 0.0 0.0 0.00 0.00 0.00 74 1010.3
20260506215806 58 72 0.0 0.0 0.00 0.00 0.00 73 1010.2
20260506215307 59 344 0.0 0.0 0.00 0.00 0.00 72 1010.4
20260506214806 59 127 0.0 0.0 0.00 0.00 0.00 70 1010.4
20260506214307 59 10 0.0 0.0 0.00 0.00 0.00 69 1010.5
20260506213806 59 106 0.0 0.0 0.00 0.00 0.00 68 1010.5
20260506213306 60 27 0.0 0.0 0.00 0.00 0.00 67 1010.6
20260506212806 60 172 0.0 0.0 0.00 0.00 0.00 66 1010.5
20260506212307 60 7 0.0 0.0 0.00 0.00 0.00 65 1010.6
20260506211806 60 127 0.0 0.0 0.00 0.00 0.00 65 1010.6
20260506211306 60 26 0.0 0.0 0.00 0.00 0.00 65 1010.5